{"data":{"norad_id":63313,"epoch":"2026-09-20T22:36:50.524416Z","epoch_age_seconds":120512,"freshness":"FRESH","line1":"1 63313U 25057G   26263.94225144  .00109259  00000+0  84160-3 0  9992","line2":"2 63313  42.9983 167.8023 0002659 213.2616 146.8085 15.70900720 87887","mean_motion":15.7090072,"eccentricity":0.0002659,"inclination_deg":42.9983,"raan_deg":167.8023,"arg_perigee_deg":213.2616,"mean_anomaly_deg":146.8085,"bstar":0.0008416,"rev_number":8788,"period_min":91.667155133776,"perigee_km":354.53082551486,"apogee_km":358.11221055475,"semimajor_km":6734.4585180348,"source":"CELESTRAK","updated_at":"2026-09-21T09:00:34.968158Z"}}